Zurück zum Katalog

COSMOS 2328

AktivNavigationPO
NORAD 23790·PAYLOAD·🇷🇺 Russia

Gestartet Feb 19, 1996 von Plesetsk Cosmodrome

Loading…

Nächste Überflüge (nächste 24 Stunden)

TLE

AktuellSource: Space-Track

Epoche: Sep 14, 2026, 06:11 UTC

1 23790U 96009D   26257.25779241  .00000006  00000-0 -27304-4 0  9991
2 23790  82.5724 262.7001 0007044 207.5922 152.4796 12.62605124408714

Verfolge COSMOS 2328 in Echtzeit mit AllMySat

Download on the App Store